CAPE
12 5 0 0 1 5 1 1 2 6 3 8 0 1 0 35 39 17 0 0 0 0 0 0 0 0 0 0 0 0 0 0 0 0 0 0 0 0 0 0 0 0 0 0 0
39 7 6 2 0 4 5 2 2 5 4 0 0 4 6 19 42 15 0 5 0 4 0 0 0 0 0 0 0 0 0 0 0 0 0 0 0 0 0 0 0 0 0 0 0
32 21 18 9 0 1 6 3 2 1 0 1 0 0 2 0 0 0 0 4 31 48 0 0 0 0 0 0 0 0 0 0 0 0 0 0 0 0 0 0 0 0 0 0 0
28 44 31 17 7 0 3 3 3 0 0 0 6 0 0 0 0 0 0 0 13 42 4 0 0 0 0 0 0 0 0 0 0 0 0 0 0 0 0 0 0 0 0 0 0
36 50 62 32 14 1 6 0 4 1 0 0 9 9 0 0 0 0 0 0 0 28 17 2 0 0 0 0 0 0 0 0 0 0 0 0 0 0 0 0 0 0 0 0 0
32 7 15 46 17 10 12 4 2 2 0 0 0 8 0 0 0 0 0 0 2 8 8 19 2 0 0 0 0 0 0 0 0 0 0 0 0 0 0 0 0 0 0 0 0
11 22 15 30 22 19 8 12 9 0 0 0 13 0 0 0 0 0 0 0 0 15 25 25 16 6 7 0 0 0 0 0 0 0 0 0 0 0 0 0 0 0 0 0 0
6 22 2 47 40 27 14 30 10 11 0 0 21 0 0 0 0 0 0 0 0 0 0 0 26 20 25 2 2 1 1 0 0 0 0 0 0 0 0 0 0 0 0 0 0
8 7 27 8 52 37 17 20 29 30 14 13 1 0 0 0 0 0 0 0 0 0 0 0 0 0 0 4 1 0 0 0 0 0 0 0 0 0 0 0 0 0 0 0 0
5 6 3 11 49 51 16 17 38 13 5 4 7 0 0 0 0 0 0 0 0 0 0 0 4 5 1 0 0 0 0 0 0 0 0 0 0 0 0 0 0 0 0 0 0
11 8 6 32 36 68 12 8 11 14 0 0 0 0 0 0 0 0 0 0 0 0 0 0 1 1 2 0 0 0 0 0 3 0 0 0 0 0 0 0 0 0 0 0 0
28 16 7 4 39 41 0 0 0 0 0 0 0 0 0 0 0 0 0 0 0 0 0 0 0 0 0 0 1 0 0 0 0 0 0 0 0 0 0 0 0 0 0 0 0
46 38 22 0 23 4 0 0 0 0 0 0 0 0 0 1 1 0 0 0 0 0 0 0 0 0 0 0 0 0 0 0 0 0 0 0 0 0 0 0 0 0 0 0 0
42 6 4 5 8 1 3 0 0 0 0 0 0 0 0 4 6 2 1 0 1 0 0 0 0 0 0 0 0 0 0 0 0 0 0 0 0 0 0 0 0 0 0 0 0
48 13 0 12 19 1 0 0 0 0 0 0 4 0 15 0 0 0 1 4 6 0 0 0 0 0 1 0 0 1 0 0 0 0 0 0 1 0 0 0 0 0 0 0 0
7 1 2 2 2 0 0 1 0 0 0 0 1 3 7 3 0 1 7 20 2 4 3 0 0 0 0 0 0 2 0 4 5 0 1 0 0 0 0 0 0 0 0 0 0
0 11 25 29 12 0 0 1 0 0 0 0 1 1 1 0 2 3 4 4 3 1 0 3 1 1 0 0 0 1 0 0 0 0 0 0 0 0 0 0 0 0 0 0 0
25 40 8 0 29 0 1 0 0 0 0 0 0 0 1 0 0 1 1 3 14 1 0 0 0 0 0 0 0 0 0 0 0 0 0 0 0 0 0 0 0 0 0 0 0
53 30 10 0 41 3 0 0 0 0 0 0 1 1 1 0 0 3 5 1 0 2 0 1 0 0 0 0 1 1 0 0 0 0 0 0 0 0 0 0 0 0 0 0 0
11 19 0 2 34 16 0 0 0 0 0 0 0 0 0 0 0 1 0 0 1 1 0 0 1 0 0 0 2 3 0 0 0 0 0 0 0 0 0 0 0 0 0 0 0
0 1 30 43 29 15 1 0 0 0 0 0 0 0 0 0 0 0 0 0 0 0 0 1 2 0 3 4 0 2 1 0 0 0 0 0 0 0 0 0 0 0 0 0 0
0 0 67 27 1 2 1 0 0 0 0 0 0 0 0 0 0 1 0 0 0 0 0 0 2 0 0 0 0 0 0 6 3 0 0 0 0 4 0 0 0 0 0 0 0
4 1 48 1 0 0 0 0 0 0 0 0 0 0 0 0 0 0 0 0 0 0 0 0 0 0 0 0 2 0 0 0 6 4 0 0 0 0 0 0 0 0 0 0 0
0 0 7 9 4 0 0 3 0 0 0 0 0 2 0 2 0 0 0 0 0 0 0 0 0 0 0 0 0 0 1 0 0 0 0 0 0 0 0 0 0 0 0 0 0
0 1 1 0 1 0 0 0 0 0 0 0 2 2 2 1 1 0 0 0 0 0 0 0 0 0 0 1 0 0 0 1 0 0 0 0 0 0 0 0 0 0 0 0 0
1 2 2 2 1 0 0 0 0 0 1 1 2 2 3 1 0 0 0 0 0 0 1 3 0 1 0 0 1 2 1 0 0 0 0 0 0 0 6 0 0 0 0 0 0
0 6 0 6 1 1 1 0 1 1 0 1 0 1 1 0 0 0 0 0 0 0 3 1 0 0 0 0 0 0 1 3 2 2 0 0 0 0 0 0 2 0 0 0 0
CIN
-4 -31 -3 -0 -0 -0 -0 -0 -0 -0 -0 -0 -0 -3 -0 -2 -0 -0 -0 -0 -0 -0 -0 -0 -0 -0 -0 -0 -0 -0 -0 -0 -0 -0 -0 -0 -0 -0 -0 -0 -0 -0 -0 -0 -0
-0 -22 -25 -21 -0 -0 -0 -0 -0 -0 -0 -0 -0 -8 -11 -3 -0 -1 -1 -14 -0 -2 -0 -0 -0 -0 -0 -0 -0 -0 -0 -0 -0 -0 -0 -0 -0 -0 -0 -0 -0 -0 -0 -0 -0
-3 -4 -25 -16 -0 -0 -0 -0 -0 -0 -0 -0 -0 -0 -11 -1 -0 -0 -0 -5 -10 -1 -0 -0 -0 -0 -0 -0 -0 -0 -0 -0 -0 -0 -0 -0 -0 -0 -0 -0 -0 -0 -0 -0 -0
-0 -0 -4 -32 -25 -0 -0 -0 -0 -0 -0 -0 -0 -0 -0 -0 -0 -0 -0 -0 -5 -2 -10 -0 -0 -0 -0 -0 -0 -0 -0 -0 -0 -0 -0 -0 -0 -0 -0 -0 -0 -0 -0 -0 -0
-1 -2 -0 -3 -28 -16 -0 -0 -0 -0 -0 -0 -0 -2 -0 -0 -0 -0 -0 -0 -0 -1 -1 -0 -0 -0 -0 -0 -0 -0 -0 -0 -0 -0 -0 -0 -0 -0 -0 -0 -0 -0 -0 -0 -0
-0 -5 -16 -2 -5 -27 -0 -3 -0 -0 -0 -0 -0 -4 -0 -0 -0 -0 -0 -0 -3 -1 -7 -0 -0 -0 -0 -0 -0 -0 -0 -0 -0 -0 -0 -0 -0 -0 -0 -0 -0 -0 -0 -0 -0
-0 -2 -8 -8 -13 -32 -8 -0 -0 -0 -0 -0 -0 -0 -0 -0 -0 -0 -0 -0 -0 -5 -0 -3 -5 -3 -4 -0 -0 -0 -0 -0 -0 -0 -0 -0 -0 -0 -0 -0 -0 -0 -0 -0 -0
-0 -0 -1 -5 -9 -11 -10 -0 -2 -0 -0 -0 -0 -1 -0 -0 -0 -0 -0 -0 -0 -0 -0 -0 -13 -3 -0 -4 -5 -1 -6 -0 -0 -0 -0 -0 -0 -0 -0 -0 -0 -0 -0 -0 -0
-0 -0 -6 -4 -7 -14 -6 -0 -1 -1 -4 -2 -0 -0 -0 -0 -0 -0 -0 -0 -0 -0 -0 -0 -0 -0 -1 -0 -0 -5 -0 -0 -0 -0 -0 -0 -0 -0 -0 -0 -0 -0 -0 -0 -0
-0 -0 -0 -7 -2 -9 -25 -2 -0 -3 -12 -16 -1 -0 -0 -0 -0 -0 -0 -0 -0 -0 -0 -1 -5 -2 -5 -0 -0 -0 -0 -0 -0 -0 -0 -0 -0 -0 -0 -0 -0 -0 -0 -0 -0
-0 -0 -0 -0 -3 -7 -19 -0 -0 -0 -1 -0 -0 -0 -0 -0 -0 -0 -0 -0 -0 -0 -0 -0 -0 -0 -3 -0 -0 -0 -1 -6 -3 -0 -0 -0 -0 -0 -0 -0 -0 -0 -0 -0 -0
-0 -0 -0 -10 -5 -4 -0 -0 -13 -0 -0 -0 -0 -1 -0 -0 -0 -0 -0 -0 -0 -0 -0 -0 -0 -0 -0 -5 -8 -0 -0 -0 -0 -0 -0 -0 -0 -0 -0 -0 -0 -0 -0 -0 -0
-0 -1 -1 -0 -2 -2 -0 -0 -0 -0 -0 -0 -0 -0 -0 -4 -0 -0 -0 -0 -0 -0 -0 -0 -0 -0 -0 -0 -1 -0 -0 -0 -0 -0 -0 -0 -0 -0 -0 -0 -0 -0 -0 -0 -0
-0 -4 -1 -0 -0 -0 -0 -0 -0 -0 -0 -0 -0 -0 -0 -4 -1 -16 -22 -0 -5 -0 -0 -0 -0 -0 -0 -0 -0 -0 -0 -0 -0 -0 -0 -0 -0 -0 -0 -0 -0 -0 -0 -0 -0
-0 -6 -0 -0 -0 -0 -0 -0 -0 -0 -0 -0 -1 -0 -0 -0 -0 -0 -11 -9 -0 -2 -0 -0 -0 -0 -0 -0 -0 -0 -0 -0 -0 -0 -0 -0 -0 -0 -0 -0 -0 -0 -0 -0 -0
-18 -0 -0 -7 -1 -0 -0 -4 -0 -0 -0 -0 -3 -1 -0 -2 -2 -5 -2 -2 -7 -0 -6 -0 -0 -0 -0 -0 -0 -0 -2 -0 -0 -0 -0 -0 -0 -0 -0 -0 -0 -0 -0 -0 -0
-0 -39 -4 -3 -0 -0 -0 -4 -0 -0 -0 -0 -0 -0 -0 -0 -2 -2 -3 -0 -0 -0 -0 -0 -0 -0 -0 -0 -0 -0 -1 -0 -0 -0 -0 -0 -0 -0 -0 -0 -0 -0 -0 -0 -0
-1 -25 -7 -0 -0 -0 -3 -0 -0 -0 -0 -0 -0 -0 -0 -0 -0 -1 -0 -0 -0 -1 -0 -0 -0 -0 -0 -0 -0 -0 -0 -0 -0 -0 -0 -0 -0 -0 -0 -0 -0 -0 -0 -0 -0
-2 -2 -1 -0 -0 -1 -0 -0 -0 -0 -0 -0 -0 -0 -0 -0 -0 -1 -0 -2 -0 -3 -0 -2 -0 -0 -0 -0 -0 -0 -0 -0 -0 -0 -0 -0 -0 -0 -0 -0 -0 -0 -0 -0 -0
-6 -5 -0 -1 -1 -1 -0 -0 -0 -0 -0 -0 -0 -0 -0 -0 -0 -1 -1 -0 -0 -1 -7 -1 -1 -0 -0 -1 -2 -1 -0 -1 -0 -0 -0 -0 -0 -0 -0 -0 -0 -0 -0 -0 -0
-2 -0 -1 -0 -1 -0 -0 -0 -0 -0 -0 -0 -0 -0 -0 -0 -1 -1 -0 -0 -0 -0 -0 -5 -0 -0 -2 -0 -0 -0 -1 -1 -2 -0 -0 -0 -0 -0 -0 -0 -0 -0 -0 -0 -0
-0 -17 -5 -0 -0 -0 -0 -0 -0 -0 -0 -0 -0 -0 -0 -0 -0 -0 -0 -0 -0 -0 -0 -0 -0 -0 -0 -0 -0 -0 -0 -23 -8 -0 -0 -0 -0 -163 -0 -0 -0 -0 -0 -0 -0
-0 -0 -3 -0 -0 -0 -0 -0 -0 -0 -0 -0 -0 -0 -0 -0 -0 -0 -0 -0 -0 -0 -0 -0 -0 -0 -0 -0 -0 -0 -0 -0 -3 -19 -0 -0 -0 -0 -0 -0 -0 -0 -0 -0 -0
-0 -0 -0 -0 -0 -0 -0 -1 -0 -0 -0 -0 -0 -0 -0 -0 -0 -0 -0 -0 -0 -0 -0 -0 -0 -0 -0 -0 -0 -0 -0 -0 -0 -1 -0 -0 -0 -0 -0 -0 -0 -0 -0 -0 -0
-0 -0 -0 -0 -0 -0 -0 -0 -0 -0 -0 -0 -0 -0 -0 -1 -0 -0 -0 -0 -0 -0 -0 -0 -0 -0 -0 -0 -0 -0 -0 -0 -0 -0 -0 -0 -0 -0 -0 -0 -0 -0 -0 -0 -0
-0 -1 -0 -0 -0 -0 -0 -0 -0 -0 -0 -0 -0 -0 -0 -0 -0 -0 -0 -0 -0 -0 -1 -0 -0 -0 -0 -0 -0 -0 -0 -0 -0 -0 -0 -0 -0 -0 -0 -15 -0 -0 -0 -0 -0
-0 -5 -0 -0 -0 -0 -0 -0 -0 -1 -0 -21 -0 -0 -0 -0 -0 -0 -0 -0 -0 -0 -0 -0 -0 -0 -0 -0 -0 -0 -0 -0 -0 -0 -0 -0 -0 -0 -0 -0 -0 -0 -0 -0 -0
Wind_Speed
23 23 24 25 24 25 24 24 25 25 25 25 24 23 22 21 19 19 25 21 17 19 17 19 17 19 17 18 18 16 22 23 24 23 25 20 22 22 22 23 23 22 20 20 16
22 23 22 24 24 25 25 24 24 24 24 24 23 22 21 21 22 26 24 22 18 15 17 16 16 17 16 16 17 18 21 25 21 23 28 26 27 26 25 28 26 25 23 23 17
26 23 22 22 25 25 25 24 23 23 23 23 23 22 20 20 26 28 25 28 22 19 15 15 14 15 16 17 17 19 24 26 26 25 29 31 32 28 30 34 29 28 27 24 20
32 25 23 22 24 25 24 24 22 21 22 22 21 21 20 20 24 18 19 20 16 10 12 14 14 16 17 19 18 25 26 28 31 32 32 33 29 32 32 36 26 27 26 25 23
34 31 24 22 22 24 23 23 22 21 21 21 21 19 19 24 27 20 19 19 16 8 11 12 16 16 19 17 20 24 27 30 33 35 36 37 42 39 40 39 38 38 33 31 29
36 34 29 20 22 22 22 21 22 21 21 21 20 18 19 28 21 23 20 18 14 8 10 11 15 15 19 19 22 21 26 29 33 37 37 41 45 39 38 31 38 35 36 34 33
37 37 33 21 19 20 21 20 20 20 21 21 19 19 22 25 17 17 16 15 13 10 14 14 14 16 17 21 20 24 34 34 32 34 39 35 50 44 44 39 47 47 41 40 38
38 37 36 27 18 18 19 19 19 18 19 20 19 19 25 20 20 19 17 16 14 12 13 12 12 18 22 22 23 25 27 33 25 26 31 31 52 36 31 30 35 44 42 40 42
40 38 37 31 22 16 17 18 19 17 17 19 20 21 28 22 20 20 14 15 16 14 14 16 14 19 19 22 28 24 35 33 32 24 28 28 39 32 29 32 37 38 40 37 36
42 39 37 33 23 18 14 15 16 16 18 20 22 24 25 20 16 15 12 11 15 12 16 18 19 22 20 21 31 31 33 33 34 25 29 38 49 48 45 45 45 43 41 38 36
41 38 37 35 27 18 13 13 20 25 23 23 21 19 20 18 15 16 13 10 15 16 19 20 24 26 24 23 27 32 35 38 34 33 38 43 52 51 47 47 48 49 47 44 42
40 40 37 35 33 17 16 24 21 18 26 29 30 27 21 19 21 18 10 15 18 21 19 24 30 26 25 25 29 33 39 44 44 38 40 46 62 54 52 54 49 47 49 44 43
38 37 37 35 35 20 20 21 14 16 27 27 25 28 23 20 24 20 13 17 21 23 23 28 26 23 23 28 32 34 38 42 46 42 44 50 67 56 54 53 50 47 46 47 43
37 36 37 33 33 22 23 15 11 14 29 28 24 24 20 20 27 17 11 17 22 24 22 29 28 29 27 30 29 42 32 37 40 40 43 27 55 47 44 49 44 43 40 42 41
39 38 39 34 28 26 19 14 10 14 35 20 19 17 13 14 19 18 11 16 21 21 21 28 27 28 31 31 28 35 29 32 33 38 44 42 43 46 36 43 42 40 38 37 35
42 43 40 36 29 20 16 12 12 22 35 22 16 16 14 15 15 14 12 15 20 25 27 32 27 29 29 27 25 26 30 33 34 37 50 44 38 60 46 45 43 44 42 38 36
51 47 41 33 29 19 20 17 23 31 20 19 18 14 13 14 16 14 15 18 21 25 30 31 31 28 26 30 26 26 30 39 41 42 50 33 39 48 36 34 37 39 39 39 36
33 30 34 35 30 23 20 22 31 27 23 13 13 11 16 14 19 16 20 19 18 23 28 31 37 24 21 26 28 26 29 36 44 46 47 36 48 46 42 46 44 44 40 37 35
17 24 36 34 32 24 22 29 28 24 20 13 8 15 17 17 19 15 17 19 18 11 19 25 27 19 14 12 14 21 30 29 39 40 43 43 46 47 47 45 43 44 41 37 35
19 25 33 29 28 27 22 26 25 19 12 13 19 16 16 13 11 11 14 15 12 7 4 17 25 7 4 0 3 6 12 24 29 40 42 42 46 46 38 38 36 39 40 38 31
20 29 25 24 26 27 27 26 23 19 16 17 17 14 14 13 8 10 13 14 6 9 10 7 4 8 8 3 4 5 8 6 16 21 33 39 38 28 21 25 31 34 36 35 28
21 27 28 26 30 29 22 18 18 18 18 17 16 16 13 9 9 9 11 7 9 6 6 3 2 6 10 11 7 10 11 15 15 24 26 34 52 22 23 24 29 30 29 29 26
22 23 24 21 32 27 13 15 20 20 19 18 17 17 16 11 13 5 7 23 6 6 5 4 1 6 8 11 7 10 14 16 16 21 19 34 40 31 33 29 27 26 24 19 17
22 18 22 36 26 20 17 24 21 19 19 20 19 19 17 15 7 13 25 22 9 8 3 5 3 10 16 17 11 7 17 12 19 38 40 43 37 40 36 33 29 25 22 19 15
19 22 26 40 31 19 21 24 26 21 26 24 22 24 16 17 9 28 28 23 9 7 4 6 12 11 17 21 16 16 18 22 30 37 36 34 38 37 33 31 27 24 23 22 18
22 21 27 28 18 18 24 27 29 28 25 25 27 23 23 16 27 23 22 21 18 7 6 3 9 13 15 9 4 12 20 21 26 31 33 35 36 31 27 26 29 27 23 23 16
17 22 23 20 11 18 28 25 26 24 26 26 26 27 26 27 29 27 27 25 17 12 11 8 4 1 12 5 5 9 15 22 24 29 28 29 31 30 31 26 27 26 24 25 19
Wind_Direction
308 313 316 312 309 306 305 305 304 301 300 297 294 290 287 285 293 290 283 289 299 292 307 307 309 302 301 293 289 291 282 279 279 279 277 294 288 285 288 285 289 290 291 295 305
303 305 312 310 306 302 301 301 300 299 298 297 293 292 290 290 286 278 283 287 294 307 304 309 310 310 301 298 292 279 279 281 286 281 279 282 281 286 283 281 283 286 289 293 295
301 301 304 307 302 297 295 297 299 298 297 296 291 289 291 289 281 281 286 276 282 293 302 312 316 313 301 297 290 288 277 279 282 285 282 280 280 283 279 274 280 283 286 290 289
294 294 297 299 298 294 292 292 296 297 295 294 293 293 290 281 274 295 303 297 285 280 300 305 310 306 301 292 292 284 284 283 281 280 281 280 285 280 277 271 282 284 288 288 286
292 289 292 292 294 291 289 289 290 293 294 292 293 295 290 275 272 289 302 308 303 278 282 297 299 304 297 304 299 289 288 284 282 281 279 278 272 276 273 271 272 273 280 279 280
292 287 288 286 287 289 287 288 287 288 289 289 292 295 291 273 289 283 287 304 312 299 289 298 302 304 306 305 298 303 299 293 286 278 279 276 271 276 273 279 273 275 274 276 277
296 284 281 282 282 286 285 285 286 288 287 287 292 292 285 276 300 299 294 300 311 310 300 298 303 304 313 305 308 305 294 293 290 283 274 281 268 271 273 274 265 263 269 271 272
297 289 278 277 276 279 281 282 284 286 288 288 293 292 281 292 295 287 289 293 305 312 316 324 314 301 295 306 309 306 302 294 305 298 280 272 262 276 286 277 270 267 268 270 268
289 289 276 274 269 271 278 279 280 282 288 289 289 290 280 294 291 290 295 294 298 304 310 317 318 302 304 296 298 300 290 292 296 302 293 271 276 276 287 280 273 272 269 271 272
285 286 280 271 265 259 268 276 279 283 286 288 286 284 282 290 301 306 302 306 305 306 300 300 301 296 296 294 294 295 291 292 289 298 294 281 272 269 274 273 270 270 270 272 272
286 280 281 266 266 248 248 268 269 271 271 270 279 280 291 298 304 304 308 303 306 299 290 297 288 287 291 289 291 294 292 289 291 297 292 284 275 271 273 273 270 268 268 270 271
288 274 275 265 263 232 238 258 261 281 273 268 268 273 284 297 289 296 316 291 291 290 295 294 287 293 296 292 290 290 288 286 289 293 289 284 269 274 270 267 270 270 267 270 270
283 276 273 264 262 225 232 252 260 277 276 277 273 270 275 286 286 290 293 293 293 288 289 287 299 308 288 289 288 288 286 287 286 290 286 286 267 274 271 268 268 269 269 267 268
279 272 265 261 257 224 234 240 259 280 269 272 275 279 276 280 287 286 285 296 293 291 293 295 295 293 293 289 289 286 289 288 288 286 283 294 279 276 274 270 271 271 270 267 266
271 271 259 253 258 224 229 222 254 276 259 275 274 291 287 273 297 301 291 290 292 293 298 299 302 299 287 286 289 290 294 289 288 285 283 279 281 279 278 272 273 274 273 270 268
269 267 256 252 248 220 181 204 245 256 257 269 279 275 278 278 297 314 297 300 309 293 291 293 301 299 295 295 288 298 289 289 288 283 276 275 274 269 275 274 277 276 274 271 268
266 253 240 239 239 188 170 211 246 248 265 270 271 273 276 281 292 303 303 291 298 301 298 301 293 297 297 292 291 284 288 285 281 273 275 281 273 270 280 283 281 279 276 272 267
265 241 230 229 247 179 188 223 244 250 252 277 272 271 277 288 294 302 304 301 295 301 309 308 306 298 295 283 289 276 275 278 280 277 278 279 273 275 280 278 276 274 275 274 267
273 236 219 227 222 183 195 233 241 249 246 252 257 270 280 294 301 310 308 305 311 286 311 321 318 330 327 312 293 298 277 277 280 282 280 277 279 281 279 278 278 272 270 270 263
244 225 216 230 196 203 211 239 243 250 248 247 264 275 286 304 311 322 325 333 328 308 284 336 321 346 355 85 221 219 330 293 278 277 277 279 277 275 280 286 289 277 268 267 263
223 203 216 209 197 206 230 238 243 242 246 254 270 282 297 312 315 327 334 342 7 13 157 171 193 6 12 285 258 250 257 274 302 288 281 281 282 291 284 297 300 289 271 270 259
213 203 208 190 204 216 232 241 241 233 250 264 274 287 298 317 323 323 324 351 24 44 120 158 9 275 260 317 281 261 266 243 262 287 285 284 259 277 276 295 301 298 278 271 255
213 208 209 203 209 218 230 244 237 234 245 262 275 281 292 318 323 321 344 224 148 150 104 74 316 285 341 350 311 286 267 254 249 287 231 268 238 248 250 272 287 290 277 267 256
204 222 201 205 223 220 228 233 235 241 247 258 272 277 296 309 319 335 230 222 143 156 97 114 223 236 259 264 332 272 225 225 206 221 227 216 230 232 252 266 273 285 267 258 253
226 217 206 204 214 222 227 231 230 242 240 248 264 268 296 304 330 230 218 215 182 167 126 158 241 246 263 263 246 229 205 191 192 203 202 222 221 233 247 252 262 266 250 238 236
206 214 210 217 218 226 226 227 225 232 239 250 252 264 271 299 240 235 207 195 209 88 96 114 245 261 282 289 228 183 184 179 186 193 204 213 223 226 233 264 250 242 245 235 240
229 222 218 219 209 233 229 229 231 235 244 248 248 245 256 230 229 228 220 215 187 195 196 180 196 230 272 258 190 153 173 186 184 189 193 193 207 220 237 230 225 234 238 228 230